User: anonymous   Login
Location: Beang
(6.6177°N, 10.9863°W)
Time: 12:15:27
(UTC+00:00)
Language:

Skynet4D Del rocket - Orbit

View from above orbital plane
View from above orbital plane
View from above satellite
View from above satellite

Ground track
Ground track

The orbit data is extracted from the following two-line orbital elements,

1 25135U 98002B   20226.85631799 +.00000151 +00000-0 +34717-4 0  9998
2 25135 026.8823 166.2573 0356466 080.3984 329.7274 13.62389212125682
Epoch (UTC): 13 August 2020 20:33:05
Eccentricity: 0.0356466
inclination: 26.8823°
perigee height: 763 km
apogee height: 1291 km
right ascension of ascending node: 166.2573°
argument of perigee: 80.3984°
revolutions per day: 13.62389212
mean anomaly at epoch: 329.7274°
orbit number at epoch: 12568

The dashed part of the orbit path shows where the satellite is in the earth's shadow,  

DLR